Regional Weather Roundup
Issued by NWS

Home | Current Version | Previous Version | Text Only | Print | Product List | Glossary On
Versions: 1 2 3 4 5 6 7 8 9 10 11 12 13 14 15 16 17 18 19 20 21 22 23 24 25 26 27 28 29 30 31 32 33 34 35 36 37 38 39 40 41 42 43 44 45 46 47 48 49 50
000
ASUS43 KLOT 231208
RWRIL

ILLINOIS REGIONAL WEATHER ROUNDUP
NATIONAL WEATHER SERVICE CHICAGO/ROMEOVILLE IL
700 AM CDT MON APR 23 2018

NOTE: "FAIR" INDICATES FEW OR NO CLOUDS BELOW 12,000 FEET WITH NO
SIGNIFICANT WEATHER AND/OR OBSTRUCTIONS TO VISIBILITY.

* THESE STATIONS ARE NOT UNDER NWS QUALITY CONTROL. THEY ALSO MAY NOT
  REPORT WEATHER SUCH AS PRECIPITATION OR FOG.

ILZ001-002-007-009-015-016-024-231300-
NORTHWEST ILLINOIS

CITY           SKY/WX    TMP DP  RH WIND       PRES   REMARKS
MOLINE         FAIR      46  28  49 NE8       30.19S
6HR MIN TEMP:  41; 6HR MAX TEMP:  47;

STERLING*      FAIR      44  27  51 NE8       30.21R
SAVANNA*       FAIR      43  28  56 NE7       30.23R
$$

ILZ003-004-008-010-011-017-018-231300-
NORTH CENTRAL ILLINOIS

CITY           SKY/WX    TMP DP  RH WIND       PRES   REMARKS
ROCKFORD       CLOUDY    45  25  45 NE6       30.25R
6HR MIN TEMP:  40; 6HR MAX TEMP:  45;

FREEPORT*      FAIR      38  27  66 CALM      30.26R
ROCHELLE*      FAIR      39  30  69 NE12      30.22R WCI  32
DE KALB*       FAIR      41  30  64 NE9       30.21F
PERU*          FAIR      47  29  50 NE15      30.18R
$$

ILZ005-006-012>014-019>023-231300-
NORTHEAST ILLINOIS

CITY           SKY/WX    TMP DP  RH WIND       PRES   REMARKS
CHICAGO-OHARE  CLOUDY    45  28  51 NE10      30.21S
6HR MIN TEMP:  43; 6HR MAX TEMP:  47;

CHICAGO-MIDWAY CLOUDY    47  29  49 NE7       30.21S
6HR MIN TEMP:  43; 6HR MAX TEMP:  47;

AURORA         FAIR      44  28  53 NE12      30.19S
6HR MIN TEMP:  42; 6HR MAX TEMP:  45;

LANSING*       FAIR      44  32  62 NE9       30.19S
JOLIET*        FAIR      47  27  47 NE8       30.19R
WAUKEGAN       FAIR      44  29  55 NE8       30.24S
6HR MIN TEMP:  33; 6HR MAX TEMP:  44;

DUPAGE AIRPORT FAIR      44  29  55 NE9       30.20S
6HR MIN TEMP:  38; 6HR MAX TEMP:  44;

KANKAKEE*      FAIR      44  28  53 NE9       30.16F
WHEELING       FAIR      46  29  51 NE8       30.24S
6HR MIN TEMP:  41; 6HR MAX TEMP:  46;

MORRIS*        FAIR      42  29  60 N6        30.18R
ROMEOVILLE*    FAIR      45  28  52 NE10      30.19R
NORTHERLY ISL    N/A     42  32  67 MISG        N/A
$$

LMZ740>746-231300-
SOUTHERN LAKE MICHIGAN

STATION/POSITION SKY/WX   TEMP    WIND        PRES    VSBY  WAVE
                          AIR SEA DIR/SP/G                  HT/PER
                          (F)     (DEG/KT/KT) (MB)    (MI)  (FT/S)
HARRISON CRIB              42     360/ 11/ 12   N/A
BURNHAM HARBOR             42     360/  9/ 12   N/A
CALUMET HARBOR             42     350/ 11/ 14 1022.3R
BURNS HARBOR               43      70/  9/ 11 1023.0
MICHIGAN CITY              43      40/ 11/ 11   N/A
$$

ILZ025>027-034>036-040-047-049-050-058-095>099-231300-
WEST-CENTRAL ILLINOIS

CITY           SKY/WX    TMP DP  RH WIND       PRES   REMARKS
QUINCY         CLOUDY    48  34  58 NE13      30.09R
GALESBURG*     FAIR      46  33  59 N10       30.17S
MACOMB*        CLOUDY    46  30  54 NE13      30.15R
JACKSONVILLE*  CLOUDY    49  32  52 NE10      30.08R
PITTSFIELD*    MOCLDY    50  33  50 N8        30.08R
$$

ILZ028>032-037-038-041>044-048-051>054-059>061-231300-
CENTRAL ILLINOIS

CITY           SKY/WX    TMP DP  RH WIND       PRES   REMARKS
PONTIAC        FAIR      43  31  61 NE12      30.15S
BLOOMINGTON    FAIR      44  28  53 NE14      30.12S
DECATUR        CLOUDY    48  30  49 NE10      30.07S
PEORIA         FAIR      48  28  46 NE14      30.14R
6HR MIN TEMP:  48; 6HR MAX TEMP:  53;

LACON*         FAIR      45  28  51 N7        30.16R
LINCOLN*       FAIR      47  32  56 NE5       30.09S
SPRINGFIELD    MOCLDY    50  31  48 NE9       30.08R
6HR MIN TEMP:  50; 6HR MAX TEMP:  57;

TAYLORVILLE    CLOUDY    50  31  47 NE9       30.05S
6HR MIN TEMP:  50; 6HR MAX TEMP:  57;

$$

ILZ033-039-045-046-055>057-062-063-231300-
EAST-CENTRAL ILLINOIS

CITY           SKY/WX    TMP DP  RH WIND       PRES   REMARKS
CHAMPAIGN      MOCLDY    48  28  46 NE17      30.08S
DANVILLE*      PTSUNNY   46  31  57 NE9       30.09R
RANTOUL*       FAIR      47  31  53 NE14      30.11R
MATTOON        LGT RAIN  47  38  71 NE13      30.05R
PARIS*         CLOUDY    48  34  57 NE7       30.10R
$$

ILZ079-100>102-231300-
SOUTHWEST ILLINOIS

CITY           SKY/WX    TMP DP  RH WIND       PRES   REMARKS
ALTON          LGT RAIN  46  43  87 N9        30.01R
BELLEVILLE     LGT RAIN  49  45  87 NE10G22   29.96R
CAHOKIA*       LGT RAIN  49  44  83 NE13G22   29.98R
SPARTA*        LGT RAIN  48  48 100 NE21G28   29.93R
$$

ILZ064>066-069>071-074>076-080>082-084>086-088>090-092>094-231300-
SOUTH-CENTRAL ILLINOIS

CITY           SKY/WX    TMP DP  RH WIND       PRES   REMARKS
CARBONDALE     CLOUDY    51  49  92 NE14G24   29.86R FOG
6HR MIN TEMP:  49; 6HR MAX TEMP:  55; 6HR PCP:  0.48;

CAIRO*         CLOUDY    55  54  99 E9        29.79R FOG
EFFINGHAM*     RAIN      48  45  87 NE8       30.05R
MARION         LGT RAIN  52  50  93 NE12      29.87R
MT. VERNON     LGT RAIN  49  48  97 NE17G23   29.95R FOG
CENTRALIA*     RAIN      49  47  95 NE12G21   29.96S
SALEM*         RAIN      49  46  87 NE13G22   29.98R
METROPOLIS*    RAIN      57  57  97 E10G16    29.83R
$$

ILZ067-068-072-073-078-083-087-091-231300-
SOUTHEAST ILLINOIS

CITY           SKY/WX    TMP DP  RH WIND       PRES   REMARKS
LAWRENCEVILLE  LGT RAIN  51  46  83 NE15      30.03R
FLORA*         LGT RAIN  50  47  92 NE13      29.99R
FAIRFIELD*     CLOUDY    49  49 100 NE10      29.95R
HARRISBURG*    LGT RAIN  53  52  98 E20G25    29.89R
ROBINSON*      LGT RAIN  48  44  87 NE9       30.06R
CARMI*         CLOUDY    52  50  94 NE20G26   29.93R
$$

ABBREVIATIONS USED IN REMARKS
   TC - TEMPERATURE IN CELSIUS
  WCI - WIND CHILL INDEX
   HX - HEAT INDEX
  VSB - VISIBILITY
$$





USA.gov is the U.S. government's official web portal to all federal, state and local government web resources and services.